[[{"header":{"parameterUnit":"m.s-1","parameterCategory":1,"la1":30.2991,"la2":30.254,"lo1":-89.0895,"lo2":-89.0444,"dy":0.0017,"dx":0.0017,"nx":28,"ny":28,"refTime":"2025-07-03T09:00:00:Z","depth":0,"parameterNumber":2,"parameterNumberName":"U-component_of_WINDS"},"data":[0,0,0,0,0,0,0,0,0,0,0,0,0,0,0,0,0,0,0,0,0,0,0,0,0,0,0,0,0,0,0,0,0,0,0,0,0,0,0,0,0,0,0,0,0,0,0,0,0,0,0,0,0,0,0,0,0,0,0.1204,0.1205,0,0.1345,0.1346,0.1348,0.1341,0.1339,0.1337,0.1335,0.1485,0.149,0.1496,0,0,0,0,0,0,0,0,0,0,0,0,0,0.0934,0.0939,0.1203,0.1205,0.1207,0.1345,0.1347,0.1348,0.1341,0.1339,0.1336,0.1334,0.1483,0.149,0.1497,0,0,0,0,0,0,0,0,0,0,0,0,0,0.1061,0.0941,0.1203,0.122,0.1223,0.1344,0.1347,0.1349,0.1342,0.1339,0.1336,0.1333,0.148,0.1489,0.1498,0.1613,0,0,0.1525,0.1529,0,0,0,0,0,0,0,0,0.1054,0.1071,0.1216,0.1219,0.1222,0.1322,0.1307,0.1438,0.1342,0.1297,0.1335,0.1331,0.1433,0.1446,0.1479,0.162,0.1627,0.1525,0.1531,0.1535,0.1537,0,0,0,0,0,0,0,0.1045,0.1065,0.126,0.1218,0.1222,0.1223,0.1237,0.1331,0.1381,0.13,0.13,0.1317,0.1435,0.1471,0.1483,0.1629,0.1525,0.1533,0.1539,0.1542,0.1876,0.1879,0,0,0,0,0,0,0.1032,0.1058,0.1255,0.1264,0.1129,0.123,0.1246,0.1293,0.138,0.139,0.1319,0.1316,0.1457,0.1472,0.1488,0.1631,0.1535,0.1543,0.1548,0.1873,0.1877,0.1881,0,0,0,0,0,0,0.1026,0.105,0.1249,0.1161,0.1186,0.1238,0.1291,0.1298,0.1334,0.1394,0.1403,0.1347,0.1455,0.1476,0.1583,0.1636,0.1547,0.1555,0.1868,0.1874,0.1879,0.1917,0,0,0,0,0,0,0.1018,0.1047,0.109,0.1162,0.1191,0.134,0.1294,0.1303,0.1348,0.1345,0.1422,0.1432,0.1454,0.157,0.1591,0.1647,0.1562,0.1864,0.1871,0.1877,0.1911,0.1923,0.1933,0,0,0,0,0,0.1009,0.1096,0.1092,0.1116,0.1245,0.1343,0.136,0.1383,0.1352,0.1397,0.1436,0.1429,0.1627,0.1581,0.1605,0.1664,0.186,0.1869,0.1877,0.1907,0.1921,0.1933,0,0,0,0,0,0,0.103,0.1105,0.1102,0.1215,0.1272,0.1341,0.1398,0.1397,0.1465,0.146,0.1487,0.1505,0.1613,0.1649,0.1596,0.1782,0.174,0.1753,0.1754,0.1769,0.1779,0.1769,0.1569,0,0,0,0,0,0.1048,0.1119,0.1182,0.1275,0.1304,0.1346,0.1389,0.1402,0.1464,0.1489,0.1535,0.1597,0.1673,0.1723,0.1796,0.1917,0.1935,0.197,0.1981,0.1989,0.2001,0.207,0.2087,0.1907,0.1907,0.1907,0,0,0.1086,0.1135,0.1179,0.128,0.1327,0.1402,0.1367,0.1447,0.1504,0.1501,0.1605,0.1642,0.1713,0.1828,0.1881,0.1862,0.2055,0.1999,0.2006,0.2013,0.208,0.2097,0.2112,0.1913,0.1912,0.1911,0,0,0.1193,0.1236,0.132,0.1367,0.1437,0.1465,0.1485,0.1555,0.1579,0.1684,0.1684,0.1754,0.1883,0.1935,0.1978,0.2107,0.2104,0.213,0.2188,0.2255,0.2269,0.2282,0.233,0.2347,0.2141,0.2142,0.2142,0,0.1231,0.1342,0.1363,0.1445,0.1491,0.1491,0.1578,0.1623,0.1714,0.1747,0.1724,0.1889,0.1936,0.2064,0.2096,0.213,0.2157,0.2122,0.2265,0.2278,0.2291,0.2337,0.2355,0.2144,0.2144,0.2144,0.2144,0,0.1387,0.1465,0.1524,0.1611,0.1664,0.1748,0.1784,0.1836,0.1845,0.1876,0.1985,0.2042,0.2128,0.2159,0.2169,0.229,0.2276,0.2259,0.2217,0.231,0.2354,0.2372,0.2148,0.2147,0.2147,0.2146,0,0,0.1511,0.1609,0.1631,0.1672,0.175,0.1812,0.1897,0.198,0.2025,0.2089,0.2163,0.2274,0.2259,0.2308,0.2324,0.2382,0.2484,0.2358,0.2361,0.2381,0.2624,0.2638,0.2658,0.2483,0.2486,0.2489,0.2619,0,0.1627,0.1776,0.1799,0.1931,0.2005,0.2007,0.2082,0.214,0.2172,0.2241,0.2278,0.2357,0.233,0.236,0.2418,0.2459,0.2534,0.245,0.2554,0.2558,0.2537,0.268,0.2694,0.2814,0.2636,0.2639,0.2641,0,0.1782,0.1849,0.1988,0.2059,0.2091,0.2157,0.2237,0.2302,0.2369,0.2389,0.2444,0.2454,0.2545,0.2499,0.2627,0.257,0.2614,0.2641,0.2647,0.2658,0.2605,0.2697,0.2853,0.2871,0.2668,0.2666,0.2664,0,0.1861,0.1986,0.2086,0.2121,0.2205,0.2252,0.229,0.2354,0.2403,0.2473,0.2506,0.2586,0.2631,0.2694,0.2726,0.2689,0.2853,0.2809,0.2874,0.2873,0.2909,0.2906,0.3075,0.2935,0.2935,0.2935,0.2934,0,0.1989,0.2074,0.2123,0.2184,0.2281,0.2308,0.2405,0.2442,0.2499,0.257,0.2577,0.2644,0.2682,0.2755,0.2781,0.2885,0.2904,0.2924,0.2931,0.2924,0.2922,0.2954,0.2947,0.2939,0.2938,0.2937,0.2937,0,0.2092,0.2128,0.2238,0.2309,0.2329,0.2398,0.246,0.2522,0.2554,0.2644,0.2667,0.2719,0.2806,0.2844,0.2951,0.2969,0.3088,0.3087,0.3065,0.3067,0.313,0.3124,0.3327,0.3356,0.3195,0.3197,0.3198,0,0.2172,0.2238,0.2317,0.2364,0.2403,0.2479,0.253,0.256,0.2612,0.2695,0.2748,0.2834,0.2905,0.3045,0.3093,0.3177,0.3179,0.3244,0.3191,0.3184,0.3182,0.3178,0.3186,0.3254,0.3255,0.3257,0.3258,0,0.2311,0.2325,0.2396,0.2475,0.2535,0.2599,0.2661,0.27,0.274,0.28,0.2888,0.2943,0.3053,0.3141,0.3227,0.3269,0.3272,0.3274,0.3294,0.3289,0.3274,0.3284,0.3092,0.3269,0.3268,0.3267,0.3267,0.3266,0.2406,0.2466,0.2531,0.2611,0.2661,0.272,0.2782,0.2822,0.2896,0.2986,0.3,0.3096,0.3164,0.328,0.3325,0.3402,0.3386,0.3414,0.3422,0.3428,0.3433,0.3261,0.3418,0.3417,0.3417,0.3417,0.3417,0,0.2546,0.2589,0.2662,0.2749,0.2813,0.2808,0.2878,0.2932,0.3015,0.3078,0.3148,0.3251,0.3337,0.3392,0.3479,0.353,0.3534,0.3552,0.3549,0.3559,0.3441,0.3416,0.3548,0.3548,0.3548,0.3548,0.3548,0.3548,0.2627,0.2728,0.2751,0.2879,0.2921,0.3013,0.3053,0.3109,0.3159,0.3274,0.3344,0.3379,0.3441,0.3532,0.3612,0.3626,0.3658,0.3678,0.3692,0.3581,0.3567,0.3554,0.3531,0.3684,0.3685,0.3804,0.3805,0.3806]},{"header":{"parameterUnit":"m.s-1","parameterCategory":1,"la1":30.2991,"la2":30.254,"lo1":-89.0895,"lo2":-89.0444,"dy":0.0017,"dx":0.0017,"nx":28,"ny":28,"refTime":"2025-07-03T09:00:00:Z","depth":0,"parameterNumber":3,"parameterNumberName":"V-component_of_WINDS"},"data":[0,0,0,0,0,0,0,0,0,0,0,0,0,0,0,0,0,0,0,0,0,0,0,0,0,0,0,0,0,0,0,0,0,0,0,0,0,0,0,0,0,0,0,0,0,0,0,0,0,0,0,0,0,0,0,0,0,0,-1.3599,-1.3598,0,-1.3442,-1.344,-1.3438,-1.3397,-1.3398,-1.3399,-1.34,-1.3236,-1.3231,-1.3226,0,0,0,0,0,0,0,0,0,0,0,0,0,-1.3865,-1.386,-1.3599,-1.3597,-1.3595,-1.3442,-1.344,-1.3438,-1.3397,-1.3398,-1.34,-1.3401,-1.3238,-1.3232,-1.3225,0,0,0,0,0,0,0,0,0,0,0,0,0,-1.3732,-1.3858,-1.36,-1.3557,-1.3551,-1.3443,-1.344,-1.3437,-1.3397,-1.3399,-1.34,-1.3401,-1.324,-1.3232,-1.3225,-1.3146,0,0,-1.32,-1.3197,0,0,0,0,0,0,0,0,-1.374,-1.3723,-1.3565,-1.356,-1.3553,-1.3441,-1.3473,-1.334,-1.3397,-1.3456,-1.34,-1.3402,-1.3303,-1.329,-1.3257,-1.3139,-1.3132,-1.32,-1.3195,-1.3191,-1.3189,0,0,0,0,0,0,0,-1.3749,-1.3729,-1.3537,-1.3563,-1.3556,-1.3545,-1.3528,-1.3448,-1.3373,-1.3451,-1.3447,-1.3429,-1.33,-1.3265,-1.3253,-1.3129,-1.32,-1.3193,-1.3188,-1.3185,-1.2941,-1.294,0,0,0,0,0,0,-1.3766,-1.3737,-1.3542,-1.3532,-1.3652,-1.3539,-1.352,-1.3475,-1.3374,-1.336,-1.3428,-1.3428,-1.3278,-1.3262,-1.3247,-1.3151,-1.3192,-1.3184,-1.318,-1.2943,-1.2941,-1.2939,0,0,0,0,0,0,-1.3772,-1.3749,-1.3548,-1.3634,-1.3607,-1.3533,-1.3483,-1.3472,-1.3436,-1.3357,-1.3343,-1.3406,-1.3278,-1.3258,-1.3172,-1.3144,-1.3181,-1.3173,-1.2945,-1.2943,-1.294,-1.2956,0,0,0,0,0,0,-1.378,-1.3751,-1.3721,-1.3633,-1.3603,-1.3476,-1.3481,-1.3467,-1.3423,-1.3421,-1.3332,-1.3319,-1.3278,-1.3185,-1.3165,-1.3134,-1.3167,-1.2947,-1.2944,-1.2941,-1.2958,-1.2954,-1.2952,0,0,0,0,0,-1.3789,-1.373,-1.3719,-1.3696,-1.3563,-1.3475,-1.3457,-1.3412,-1.3421,-1.339,-1.3339,-1.3322,-1.3151,-1.3176,-1.3153,-1.312,-1.2949,-1.2945,-1.2941,-1.2959,-1.2955,-1.2952,0,0,0,0,0,0,-1.3814,-1.3718,-1.3705,-1.3616,-1.3554,-1.3468,-1.3427,-1.3409,-1.3342,-1.3343,-1.3289,-1.3269,-1.3188,-1.3145,-1.3175,-1.304,-1.305,-1.3041,-1.3071,-1.3067,-1.3064,-1.3076,-1.3161,0,0,0,0,0,-1.381,-1.3746,-1.3665,-1.3595,-1.3565,-1.3502,-1.3461,-1.3432,-1.3366,-1.3339,-1.3282,-1.3217,-1.315,-1.3106,-1.3038,-1.2952,-1.2933,-1.2918,-1.2915,-1.2912,-1.2906,-1.2859,-1.2852,-1.2927,-1.2927,-1.2927,0,0,-1.3799,-1.3738,-1.3701,-1.3598,-1.3547,-1.3483,-1.348,-1.3411,-1.3363,-1.3328,-1.3245,-1.3201,-1.3125,-1.304,-1.2999,-1.3002,-1.2881,-1.2907,-1.2906,-1.2901,-1.2854,-1.2848,-1.2841,-1.2924,-1.2924,-1.2925,0,0,-1.3747,-1.3694,-1.3631,-1.3581,-1.3504,-1.3463,-1.3448,-1.3365,-1.3336,-1.3251,-1.3224,-1.3166,-1.305,-1.2998,-1.2956,-1.2889,-1.2871,-1.2868,-1.2852,-1.2807,-1.2802,-1.2796,-1.2774,-1.2766,-1.2862,-1.2862,-1.2862,0,-1.3743,-1.3646,-1.36,-1.3534,-1.3491,-1.3458,-1.3394,-1.3347,-1.3251,-1.3222,-1.3227,-1.3082,-1.3028,-1.2932,-1.2916,-1.2882,-1.2864,-1.2878,-1.2806,-1.28,-1.2795,-1.2773,-1.2764,-1.2862,-1.2862,-1.2862,-1.2862,0,-1.3646,-1.3579,-1.3537,-1.3449,-1.34,-1.3335,-1.328,-1.3237,-1.3212,-1.3171,-1.3087,-1.3023,-1.2943,-1.2918,-1.2892,-1.2818,-1.2822,-1.2817,-1.2826,-1.2789,-1.2767,-1.2758,-1.2863,-1.2863,-1.2863,-1.2862,0,0,-1.3603,-1.3493,-1.3478,-1.3439,-1.3354,-1.3301,-1.3236,-1.316,-1.3124,-1.306,-1.3005,-1.2908,-1.2904,-1.2857,-1.2826,-1.2787,-1.274,-1.2787,-1.2784,-1.2782,-1.2656,-1.2662,-1.2652,-1.2728,-1.2726,-1.2725,-1.2663,0,-1.3542,-1.3425,-1.3384,-1.3287,-1.3226,-1.3196,-1.3139,-1.3081,-1.3041,-1.2983,-1.2939,-1.2873,-1.2871,-1.2843,-1.2803,-1.2754,-1.2714,-1.2758,-1.2676,-1.2674,-1.2697,-1.2641,-1.2645,-1.259,-1.2654,-1.2653,-1.2652,0,-1.3454,-1.3392,-1.329,-1.3215,-1.3188,-1.3138,-1.3066,-1.3011,-1.2945,-1.2919,-1.2869,-1.2841,-1.2772,-1.2786,-1.2691,-1.2722,-1.2686,-1.2657,-1.2654,-1.2645,-1.2661,-1.2631,-1.2571,-1.2564,-1.2638,-1.2639,-1.264,0,-1.3436,-1.3326,-1.3251,-1.3218,-1.3129,-1.3095,-1.3055,-1.2991,-1.2949,-1.2886,-1.2858,-1.2788,-1.275,-1.2696,-1.2651,-1.2664,-1.2561,-1.2569,-1.2538,-1.2539,-1.2517,-1.252,-1.2452,-1.2493,-1.2493,-1.2494,-1.2494,0,-1.3372,-1.3311,-1.3243,-1.3197,-1.3129,-1.3082,-1.3016,-1.2974,-1.2918,-1.2864,-1.2833,-1.2783,-1.2725,-1.2668,-1.2632,-1.256,-1.2543,-1.252,-1.2512,-1.2524,-1.2527,-1.25,-1.2503,-1.2491,-1.2492,-1.2492,-1.2493,0,-1.3339,-1.3291,-1.3208,-1.3131,-1.311,-1.3064,-1.2997,-1.2952,-1.2913,-1.2845,-1.2826,-1.2764,-1.2695,-1.2645,-1.2555,-1.2531,-1.2455,-1.2445,-1.2478,-1.2474,-1.2446,-1.245,-1.2359,-1.2345,-1.2395,-1.2395,-1.2394,0,-1.3302,-1.3255,-1.3174,-1.3137,-1.3098,-1.3038,-1.2995,-1.2948,-1.2906,-1.2829,-1.2793,-1.2723,-1.2664,-1.2556,-1.2503,-1.2435,-1.2424,-1.2397,-1.2413,-1.2428,-1.2425,-1.2429,-1.2425,-1.2395,-1.2395,-1.2394,-1.2394,0,-1.3242,-1.3221,-1.3162,-1.3095,-1.3046,-1.299,-1.2934,-1.2905,-1.2849,-1.2802,-1.2733,-1.2688,-1.2598,-1.2529,-1.2457,-1.2416,-1.2396,-1.239,-1.2379,-1.2391,-1.2412,-1.2402,-1.2473,-1.2392,-1.2392,-1.2392,-1.2392,-1.2392,-1.3206,-1.3164,-1.3102,-1.3038,-1.2991,-1.2941,-1.2895,-1.2851,-1.2793,-1.2717,-1.2693,-1.2622,-1.2559,-1.246,-1.2419,-1.2363,-1.2363,-1.2348,-1.2344,-1.2341,-1.2343,-1.2421,-1.2349,-1.2349,-1.2349,-1.2349,-1.2349,0,-1.3146,-1.3105,-1.3046,-1.2971,-1.2921,-1.2908,-1.2846,-1.2805,-1.2743,-1.2687,-1.2631,-1.2552,-1.2486,-1.2429,-1.236,-1.2326,-1.2316,-1.231,-1.2312,-1.2304,-1.2345,-1.2362,-1.232,-1.232,-1.232,-1.232,-1.232,-1.232,-1.3108,-1.3038,-1.301,-1.2916,-1.2875,-1.2807,-1.2773,-1.2726,-1.2682,-1.2596,-1.2542,-1.2505,-1.2449,-1.2377,-1.2316,-1.2301,-1.2277,-1.2274,-1.2257,-1.2297,-1.23,-1.2304,-1.2319,-1.2269,-1.2269,-1.222,-1.222,-1.222]}]]